| time (UTC) | temp F | wind direction | speed MPH | gust MPH | rain 1hr in | rain 24hr in | rain mn in | humidity % | barometer mb |
| 20260505014503 | 69 | 62 | 2.0 | 5.0 | 0.00 | 0.00 | 0.00 | 62 | 1030.5 |
| 20260505013817 | 70 | 80 | 2.0 | 7.0 | 0.00 | 0.00 | 0.00 | 62 | 1030.5 |
| 20260505012703 | 69 | 107 | 1.0 | 6.0 | 0.00 | 0.00 | 0.00 | 62 | 1030.6 |
| 20260505012017 | 70 | 58 | 1.0 | 3.0 | 0.00 | 0.00 | 0.00 | 63 | 1030.8 |
| 20260505010903 | 69 | 46 | 1.0 | 5.0 | 0.00 | 0.00 | 0.00 | 63 | 1030.9 |
| 20260505010003 | 69 | 43 | 2.0 | 4.0 | 0.00 | 0.00 | 0.00 | 62 | 1031.0 |
| 20260505005403 | 69 | 50 | 2.0 | 5.0 | 0.00 | 0.00 | 0.00 | 63 | 1031.1 |
| 20260505004503 | 70 | 70 | 2.0 | 5.0 | 0.00 | 0.00 | 0.00 | 63 | 1031.2 |
| 20260505003603 | 69 | 77 | 2.0 | 6.0 | 0.00 | 0.00 | 0.00 | 63 | 1031.4 |
| 20260505002703 | 69 | 55 | 1.0 | 4.0 | 0.00 | 0.00 | 0.00 | 63 | 1031.5 |
| 20260505001803 | 69 | 43 | 2.0 | 4.0 | 0.00 | 0.00 | 0.00 | 63 | 1031.7 |
| 20260505001118 | 69 | 49 | 2.0 | 6.0 | 0.00 | 0.00 | 0.00 | 63 | 1031.8 |
| 20260505000003 | 68 | 58 | 2.0 | 4.0 | 0.00 | 0.00 | 0.00 | 64 | 1031.9 |
| 20260504235403 | 68 | 61 | 1.0 | 8.0 | 0.00 | 0.00 | 0.00 | 65 | 1031.9 |
| 20260504234717 | 67 | 20 | 1.0 | 5.0 | 0.00 | 0.00 | 0.00 | 65 | 1032.0 |
| 20260504233603 | 67 | 21 | 2.0 | 5.0 | 0.00 | 0.00 | 0.00 | 69 | 1032.2 |
| 20260504232703 | 66 | 37 | 0.0 | 5.0 | 0.00 | 0.00 | 0.00 | 67 | 1032.3 |
| 20260504231803 | 66 | 11 | 1.0 | 3.0 | 0.00 | 0.00 | 0.00 | 69 | 1032.3 |
| 20260504230903 | 66 | 12 | 1.0 | 3.0 | 0.00 | 0.00 | 0.00 | 68 | 1032.4 |
| 20260504230003 | 65 | 10 | 1.0 | 4.0 | 0.00 | 0.00 | 0.00 | 70 | 1032.6 |
| 20260504225403 | 64 | 360 | 1.0 | 3.0 | 0.00 | 0.00 | 0.00 | 74 | 1032.6 |
| 20260504224503 | 63 | 248 | 1.0 | 4.0 | 0.00 | 0.00 | 0.00 | 75 | 1032.8 |
| 20260504223603 | 63 | 205 | 1.0 | 3.0 | 0.00 | 0.00 | 0.00 | 77 | 1032.8 |
| 20260504222704 | 62 | 205 | 1.0 | 3.0 | 0.00 | 0.00 | 0.00 | 78 | 1032.7 |
| 20260504221804 | 62 | 190 | 0.0 | 2.0 | 0.00 | 0.00 | 0.00 | 78 | 1032.7 |
| 20260504220903 | 62 | 0 | 0.0 | 2.0 | 0.00 | 0.00 | 0.00 | 79 | 1032.6 |
| 20260504220003 | 61 | 0 | 0.0 | 2.0 | 0.00 | 0.00 | 0.00 | 81 | 1032.6 |
| 20260504215403 | 61 | 0 | 0.0 | 1.0 | 0.00 | 0.00 | 0.00 | 83 | 1032.6 |
| 20260504214503 | 60 | 0 | 0.0 | 2.0 | 0.00 | 0.00 | 0.00 | 84 | 1032.5 |
| 20260504213603 | 59 | 0 | 0.0 | 0.0 | 0.00 | 0.00 | 0.00 | 86 | 1032.6 |
| 20260504212703 | 58 | 0 | 0.0 | 1.0 | 0.00 | 0.00 | 0.00 | 88 | 1032.5 |
| 20260504211803 | 57 | 0 | 0.0 | 1.0 | 0.00 | 0.00 | 0.00 | 89 | 1032.6 |
| 20260504210903 | 56 | 0 | 0.0 | 1.0 | 0.00 | 0.00 | 0.00 | 90 | 1032.6 |
| 20260504210003 | 56 | 0 | 0.0 | 1.0 | 0.00 | 0.00 | 0.00 | 91 | 1032.7 |
| 20260504205403 | 55 | 0 | 0.0 | 0.0 | 0.00 | 0.00 | 0.00 | 91 | 1032.7 |
| 20260504204503 | 54 | 0 | 0.0 | 0.0 | 0.00 | 0.00 | 0.00 | 91 | 1032.8 |
| 20260504203603 | 54 | 0 | 0.0 | 0.0 | 0.00 | 0.00 | 0.00 | 91 | 1032.8 |
| 20260504202703 | 53 | 0 | 0.0 | 0.0 | 0.00 | 0.00 | 0.00 | 90 | 1032.7 |
| 20260504201803 | 53 | 0 | 0.0 | 0.0 | 0.00 | 0.00 | 0.00 | 90 | 1032.7 |
| 20260504200903 | 53 | 0 | 0.0 | 0.0 | 0.00 | 0.00 | 0.00 | 90 | 1032.7 |
| 20260504200003 | 53 | 0 | 0.0 | 0.0 | 0.00 | 0.00 | 0.00 | 89 | 1032.6 |
| 20260504195618 | 53 | 0 | 0.0 | 0.0 | 0.00 | 0.00 | 0.00 | 89 | 1032.6 |
| 20260504194503 | 53 | 0 | 0.0 | 0.0 | 0.00 | 0.00 | 0.00 | 89 | 1032.4 |
| 20260504193603 | 53 | 0 | 0.0 | 0.0 | 0.00 | 0.00 | 0.00 | 89 | 1032.4 |
| 20260504192918 | 53 | 0 | 0.0 | 0.0 | 0.00 | 0.00 | 0.00 | 89 | 1032.4 |
| 20260504191803 | 53 | 0 | 0.0 | 0.0 | 0.00 | 0.00 | 0.00 | 89 | 1032.4 |
| 20260504190903 | 53 | 0 | 0.0 | 0.0 | 0.00 | 0.00 | 0.00 | 89 | 1032.3 |
| 20260504190003 | 53 | 0 | 0.0 | 0.0 | 0.00 | 0.00 | 0.00 | 89 | 1032.3 |
| 20260504185403 | 53 | 0 | 0.0 | 0.0 | 0.00 | 0.00 | 0.00 | 89 | 1032.3 |
| 20260504184503 | 53 | 0 | 0.0 | 0.0 | 0.00 | 0.00 | 0.00 | 89 | 1032.2 |
| 20260504183603 | 53 | 0 | 0.0 | 0.0 | 0.00 | 0.00 | 0.00 | 89 | 1032.2 |
| 20260504182703 | 53 | 0 | 0.0 | 0.0 | 0.00 | 0.00 | 0.00 | 90 | 1032.2 |
| 20260504181803 | 53 | 0 | 0.0 | 0.0 | 0.00 | 0.00 | 0.00 | 90 | 1032.3 |
| 20260504181118 | 53 | 0 | 0.0 | 1.0 | 0.00 | 0.00 | 0.00 | 90 | 1032.3 |
| 20260504180003 | 53 | 0 | 0.0 | 0.0 | 0.00 | 0.00 | 0.00 | 89 | 1032.2 |
| 20260504175617 | 53 | 0 | 0.0 | 0.0 | 0.00 | 0.00 | 0.00 | 89 | 1032.2 |
| 20260504174718 | 53 | 0 | 0.0 | 0.0 | 0.00 | 0.00 | 0.00 | 89 | 1032.2 |
| 20260504173603 | 54 | 0 | 0.0 | 0.0 | 0.00 | 0.00 | 0.00 | 89 | 1032.2 |
| 20260504172917 | 54 | 0 | 0.0 | 0.0 | 0.00 | 0.00 | 0.00 | 89 | 1032.2 |
| 20260504171803 | 54 | 0 | 0.0 | 0.0 | 0.00 | 0.00 | 0.00 | 89 | 1032.2 |
| 20260504171118 | 54 | 0 | 0.0 | 0.0 | 0.00 | 0.00 | 0.00 | 89 | 1032.2 |
| 20260504150903 | 54 | 0 | 0.0 | 1.0 | 0.00 | 0.00 | 0.00 | 89 | 1032.7 |
| 20260504150218 | 54 | 0 | 0.0 | 1.0 | 0.00 | 0.00 | 0.00 | 89 | 1032.8 |
| 20260504140903 | 54 | 0 | 0.0 | 0.0 | 0.00 | 0.00 | 0.00 | 88 | 1033.4 |
| 20260504081803 | 54 | 0 | 0.0 | 0.0 | 0.00 | 0.00 | 0.00 | 83 | 1033.6 |
| 20260504080903 | 55 | 0 | 0.0 | 0.0 | 0.00 | 0.00 | 0.00 | 83 | 1033.6 |
| 20260504070217 | 55 | 0 | 0.0 | 3.0 | 0.00 | 0.00 | 0.00 | 79 | 1033.1 |
| 20260504050003 | 64 | 32 | 2.0 | 4.0 | 0.00 | 0.00 | 0.00 | 63 | 1032.3 |
| 20260504045403 | 64 | 35 | 3.0 | 6.0 | 0.00 | 0.00 | 0.00 | 63 | 1032.3 |
| 20260504044504 | 65 | 39 | 3.0 | 6.0 | 0.00 | 0.00 | 0.00 | 62 | 1032.2 |
| 20260504043603 | 66 | 36 | 2.0 | 6.0 | 0.00 | 0.00 | 0.00 | 61 | 1032.2 |
| 20260504042703 | 66 | 30 | 3.0 | 5.0 | 0.00 | 0.00 | 0.00 | 60 | 1032.1 |
| 20260504041803 | 67 | 38 | 2.0 | 6.0 | 0.00 | 0.00 | 0.00 | 60 | 1032.1 |
| 20260504040903 | 67 | 34 | 3.0 | 8.0 | 0.00 | 0.00 | 0.00 | 59 | 1032.1 |
| 20260504040003 | 67 | 37 | 3.0 | 8.0 | 0.00 | 0.00 | 0.00 | 58 | 1032.1 |
| 20260504035403 | 67 | 32 | 3.0 | 8.0 | 0.00 | 0.00 | 0.00 | 60 | 1032.0 |
| 20260504034503 | 67 | 41 | 3.0 | 10.0 | 0.00 | 0.00 | 0.00 | 58 | 1032.1 |
| 20260504033603 | 67 | 1 | 3.0 | 6.0 | 0.00 | 0.00 | 0.00 | 60 | 1032.1 |
| 20260504032703 | 67 | 3 | 2.0 | 6.0 | 0.00 | 0.00 | 0.00 | 57 | 1032.1 |
| 20260504031803 | 67 | 20 | 3.0 | 8.0 | 0.00 | 0.00 | 0.00 | 58 | 1032.2 |
| 20260504030903 | 66 | 356 | 3.0 | 7.0 | 0.00 | 0.00 | 0.00 | 59 | 1032.2 |
| 20260504030218 | 66 | 30 | 3.0 | 7.0 | 0.00 | 0.00 | 0.00 | 59 | 1032.1 |
| 20260504025403 | 67 | 360 | 2.0 | 7.0 | 0.00 | 0.00 | 0.00 | 60 | 1032.1 |
| 20260504024503 | 67 | 21 | 2.0 | 7.0 | 0.00 | 0.00 | 0.00 | 59 | 1032.1 |
| 20260504023818 | 66 | 348 | 3.0 | 5.0 | 0.00 | 0.00 | 0.00 | 59 | 1032.1 |
| 20260504022703 | 68 | 354 | 3.0 | 7.0 | 0.00 | 0.00 | 0.00 | 58 | 1032.0 |
| 20260504021803 | 68 | 4 | 3.0 | 7.0 | 0.00 | 0.00 | 0.00 | 57 | 1032.1 |
| 20260504020903 | 69 | 11 | 3.0 | 9.0 | 0.00 | 0.00 | 0.00 | 55 | 1032.1 |
| 20260504020217 | 69 | 11 | 3.0 | 7.0 | 0.00 | 0.00 | 0.00 | 56 | 1032.1 |
| 20260504015617 | 69 | 340 | 3.0 | 8.0 | 0.00 | 0.00 | 0.00 | 55 | 1032.2 |